Regional Weather Roundup
Issued by NWS

Home | Current Version | Previous Version | Graphics & Text | Print | Product List | Glossary On
Versions: 1 2 3 4 5 6 7 8 9 10 11 12 13 14 15 16 17 18 19 20 21 22 23 24 25 26 27 28 29 30 31 32 33 34 35 36 37 38 39 40 41 42 43 44 45 46 47 48 49 50
000
ASUS43 KOAX 181402
RWRNE

WEATHER ROUNDUP FOR NEBRASKA
NATIONAL WEATHER SERVICE OMAHA NE
900 AM CDT SAT APR 18 2015

NOTES: SATELLITE DATA IS BEING USED TO AUGMENT CLOUD COVER ABOVE
       12000 FEET.
       "FAIR" INDICATES FEW OR NO CLOUDS BELOW 12,000 FEET WITH NO
       SIGNIFICANT WEATHER AND/OR OBSTRUCTIONS TO VISIBILITY.

  * THESE STATIONS DO NOT REPORT WEATHER SUCH AS RAIN...SNOW OR FOG.

NEZ001>004-019>022-054>056-181500-
NEBRASKA PANHANDLE

CITY           SKY/WX    TMP DP  RH WIND       PRES   REMARKS
SCOTTSBLUFF    CLOUDY    44  32  62 W7        29.93S
ALLIANCE       CLOUDY    47  44  90 E5        29.91S
CHADRON        LGT RAIN  47  45  93 NE14      29.93F FOG
SIDNEY         CLOUDY    41  39  93 NW9       29.93S
$$

NEZ057>060-069>072-079>082-181500-
SOUTHWEST NEBRASKA

CITY           SKY/WX    TMP DP  RH WIND       PRES   REMARKS
NORTH PLATTE   CLOUDY    50  50 100 E6        29.91F
IMPERIAL       FOG       46  45  96 CALM      29.92F VSB 1/2
LEXINGTON      MOSUNNY   51  49  95 CALM      29.90F
MCCOOK         SUNNY     51  46  83 CALM      29.91F
$$

NEZ005>010-023>029-035>040-094-181500-
NORTH CENTRAL NEBRASKA

CITY           SKY/WX    TMP DP  RH WIND       PRES   REMARKS
VALENTINE      CLOUDY    50  48  93 E6        29.93S
AINSWORTH      CLOUDY    51  49  96 CALM      29.92R
BROKEN BOW     CLOUDY    54  51  90 N7        29.90F
ORD            CLOUDY    54  51  90 NE6       29.89F
$$

NEZ041-046>049-061>064-073>077-083>087-181500-
SOUTH CENTRAL NEBRASKA

CITY           SKY/WX    TMP DP  RH WIND       PRES   REMARKS
GRAND ISLAND   CLOUDY    56  54  93 CALM      29.90R
HASTINGS       CLOUDY    55  54  96 NW8       29.88F
KEARNEY *      CLOUDY    54  52  94 W3        29.90F
YORK           LGT RAIN  57  57 100 E5        29.91F
$$

NEZ011>018-030>034-042>045-181500-
NORTHEAST NEBRASKA

CITY           SKY/WX    TMP DP  RH WIND       PRES   REMARKS
BLAIR          CLOUDY    63  54  73 E9        29.91S
COLUMBUS *     CLOUDY    57  52  82 CALM      29.95R
FREMONT        CLOUDY    63  55  77 E8        29.91S
TEKAMAH        CLOUDY    65  56  72 E8        29.91F
$$

NEZ050>053-065>068-078-088>093-181500-
SOUTHEAST NEBRASKA

CITY           SKY/WX    TMP DP  RH WIND       PRES   REMARKS
LINCOLN        TSTM      59  57  93 CALM      29.94R FOG
OMAHA EPPLEY   CLOUDY    63  56  78 E10       29.91F
FALLS CITY     CLOUDY    61  56  83 S3        29.90S
PLATTSMOUTH    CLOUDY    63  54  73 E8        29.91S
$$

NEZ044-045-051>053-067-181500-
OMAHA AREA

CITY           SKY/WX    TMP DP  RH WIND       PRES   REMARKS
OMAHA EPPLEY   CLOUDY    63  56  78 E10       29.91F
BLAIR          CLOUDY    63  54  73 E9        29.91S
FREMONT        CLOUDY    63  55  77 E8        29.91S
OFFUTT AFB     CLOUDY    64  56  75 E6        29.90S
PLATTSMOUTH    CLOUDY    63  54  73 E8        29.91S
$$



USA.gov is the U.S. government's official web portal to all federal, state and local government web resources and services.